Find Starlink 32152

NORAD ID: 60275 Int'l Des: 2024-131 Owner: SPXS Country: US Constellation: starlink operational
LEOCIRCULAR

当前视图

正在加载3D地球...

About Starlink 32152

Starlink 32152 (NORAD 60275) is a starlink constellation satellite (v2 mini) launched Jul 27, 2024 by SPXS of US. It operates in LEO, CIRCULAR orbit with a mass of 730.00 kg.

即将过境

Passes for default location (London). Set your location on the main map for personalized predictions.

高度历史

Loading altitude history...

两行轨道根数

1 60275U 24131W 26237.28320649 -.00000936 00000-0 -16583-4 0 9992
2 60275 53.1614 348.4361 0001236 90.8686 269.2459 15.34380847117447
Epoch: Aug 25, 2026 • Age: 6 hours

当前状态

高度 477.7 km
远地点 / 近地点 N/A
速度 7.63 km/s
星下点 -42.53°S, 138.34°E
发射日期 Jul 27, 2024
运行时间 2 years
类型 internet

技术详情

分类 Payload
质量 730.00 kg
干质量 700.00 kg
总质量 730.00 kg
长度 0.30 m
直径 4.10 m
跨度 29.00 m
形状 Box + pan
制造商 SPXS
平台类型 Starlink V2M
阶段状态 In Orbit
所有者/国家 SPXS/US

Most Searched